Time,TemperatureF,DewpointF,PressureIn,WindDirection,WindDirectionDegrees,WindSpeedMPH,WindSpeedGustMPH,Humidity,HourlyPrecipIn,Conditions,Clouds,dailyrainin,SoftwareType,DateUTC
2013-06-15 00:02:00,57.0,55.0,29.86,WSW,242,0.0,0.0,92,0.00,,,0.04,,2013-06-15 04:02:00,
2013-06-15 00:12:00,57.0,55.0,29.86,WSW,242,0.0,0.0,92,0.00,,,0.04,,2013-06-15 04:12:00,
2013-06-15 00:22:00,57.0,55.0,29.86,WSW,242,0.0,0.0,92,0.00,,,0.04,,2013-06-15 04:22:00,
2013-06-15 00:43:00,56.0,54.0,29.87,WSW,242,0.0,0.0,93,0.00,,,0.04,,2013-06-15 04:43:00,
2013-06-15 00:54:00,56.0,54.0,29.87,WSW,242,0.0,0.0,93,0.00,,,0.04,,2013-06-15 04:54:00,
2013-06-15 01:02:00,56.0,54.0,29.87,WSW,242,0.0,0.0,93,0.00,,,0.04,,2013-06-15 05:02:00,
2013-06-15 01:12:00,56.0,54.0,29.87,WSW,242,0.0,0.0,93,0.00,,,0.04,,2013-06-15 05:12:00,
2013-06-15 01:22:00,56.0,55.0,29.87,WSW,242,0.0,0.0,95,0.00,,,0.04,,2013-06-15 05:22:00,
2013-06-15 01:34:00,56.0,55.0,29.87,WSW,242,0.0,0.0,95,0.00,,,0.04,,2013-06-15 05:34:00,
2013-06-15 01:43:00,56.0,54.0,29.87,WSW,242,0.0,0.0,94,0.00,,,0.04,,2013-06-15 05:43:00,
2013-06-15 01:52:00,56.0,54.0,29.87,WSW,242,0.0,0.0,94,0.00,,,0.04,,2013-06-15 05:52:00,
2013-06-15 02:02:00,56.0,54.0,29.87,WSW,242,0.0,0.0,94,0.00,,,0.04,,2013-06-15 06:02:00,
2013-06-15 02:12:00,56.0,54.0,29.87,WSW,242,0.0,0.0,94,0.00,,,0.04,,2013-06-15 06:12:00,
2013-06-15 02:24:00,56.0,54.0,29.87,WSW,242,0.0,0.0,94,0.00,,,0.04,,2013-06-15 06:24:00,
2013-06-15 02:33:00,57.0,55.0,29.88,West,273,0.0,1.0,93,0.00,,,0.04,,2013-06-15 06:33:00,
2013-06-15 02:43:00,57.0,55.0,29.88,West,273,0.0,1.0,93,0.00,,,0.04,,2013-06-15 06:43:00,
2013-06-15 02:53:00,58.0,56.0,29.88,WNW,289,0.0,1.0,92,0.00,,,0.04,,2013-06-15 06:53:00,
2013-06-15 03:02:00,58.0,55.0,29.88,WNW,293,0.0,1.0,91,0.00,,,0.04,,2013-06-15 07:02:00,
2013-06-15 03:11:00,58.0,55.0,29.88,WNW,293,0.0,1.0,91,0.00,,,0.04,,2013-06-15 07:11:00,
2013-06-15 03:23:00,59.0,55.0,29.89,NW,309,0.0,0.0,88,0.00,,,0.04,,2013-06-15 07:23:00,
2013-06-15 03:33:00,59.0,55.0,29.89,NW,309,0.0,0.0,88,0.00,,,0.04,,2013-06-15 07:33:00,
2013-06-15 03:43:00,59.0,55.0,29.89,NW,316,0.0,0.0,88,0.00,,,0.04,,2013-06-15 07:43:00,
2013-06-15 03:53:00,59.0,55.0,29.89,NW,316,0.0,0.0,88,0.00,,,0.04,,2013-06-15 07:53:00,
2013-06-15 04:02:00,59.0,55.0,29.90,NW,315,0.0,0.0,87,0.00,,,0.04,,2013-06-15 08:02:00,
2013-06-15 04:11:00,59.0,55.0,29.90,NW,315,0.0,0.0,87,0.00,,,0.04,,2013-06-15 08:11:00,
2013-06-15 04:22:00,59.0,55.0,29.90,NW,308,0.0,0.0,87,0.00,,,0.04,,2013-06-15 08:22:00,
2013-06-15 04:33:00,59.0,55.0,29.90,NW,308,0.0,0.0,87,0.00,,,0.04,,2013-06-15 08:33:00,
2013-06-15 04:43:00,58.0,54.0,29.91,NW,308,0.0,0.0,88,0.00,,,0.04,,2013-06-15 08:43:00,
2013-06-15 04:53:00,58.0,54.0,29.91,NW,308,0.0,0.0,88,0.00,,,0.04,,2013-06-15 08:53:00,
2013-06-15 05:02:00,58.0,54.0,29.91,NW,322,4.0,0.0,88,0.00,,,0.04,,2013-06-15 09:02:00,
2013-06-15 05:12:00,58.0,54.0,29.91,NW,321,0.0,0.0,88,0.00,,,0.04,,2013-06-15 09:12:00,
2013-06-15 05:22:00,58.0,54.0,29.91,NW,321,0.0,0.0,88,0.00,,,0.04,,2013-06-15 09:22:00,
2013-06-15 05:33:00,58.0,54.0,29.92,NNW,328,5.0,9.0,87,0.00,,,0.04,,2013-06-15 09:33:00,
2013-06-15 05:43:00,58.0,54.0,29.93,NW,316,3.0,9.0,87,0.00,,,0.04,,2013-06-15 09:43:00,
2013-06-15 05:52:00,58.0,54.0,29.93,NW,310,0.0,9.0,87,0.00,,,0.04,,2013-06-15 09:52:00,
2013-06-15 06:02:00,58.0,54.0,29.93,NW,310,0.0,9.0,87,0.00,,,0.04,,2013-06-15 10:02:00,
2013-06-15 06:12:00,58.0,54.0,29.94,NW,324,0.0,9.0,86,0.00,,,0.04,,2013-06-15 10:12:00,
2013-06-15 06:23:00,59.0,55.0,29.93,NNW,339,0.0,9.0,86,0.00,,,0.04,,2013-06-15 10:23:00,
2013-06-15 06:34:00,59.0,54.0,29.94,NNW,331,0.0,8.0,85,0.00,,,0.04,,2013-06-15 10:34:00,
2013-06-15 06:44:00,59.0,54.0,29.94,NNW,331,0.0,8.0,85,0.00,,,0.04,,2013-06-15 10:44:00,
2013-06-15 06:53:00,59.0,54.0,29.94,NNW,331,0.0,8.0,85,0.00,,,0.04,,2013-06-15 10:53:00,
2013-06-15 07:02:00,60.0,54.0,29.94,NNW,335,0.0,8.0,82,0.00,,,0.04,,2013-06-15 11:02:00,
2013-06-15 07:12:00,61.0,55.0,29.94,NW,318,0.0,8.0,81,0.00,,,0.04,,2013-06-15 11:12:00,
2013-06-15 07:22:00,62.0,56.0,29.94,NW,317,0.0,8.0,80,0.00,,,0.04,,2013-06-15 11:22:00,
2013-06-15 07:33:00,62.0,55.0,29.95,NW,311,0.0,3.0,78,0.00,,,0.04,,2013-06-15 11:33:00,
2013-06-15 07:43:00,63.0,55.0,29.96,WNW,301,0.0,3.0,75,0.00,,,0.04,,2013-06-15 11:43:00,
2013-06-15 07:53:00,63.0,55.0,29.96,WNW,301,0.0,3.0,75,0.00,,,0.04,,2013-06-15 11:53:00,
2013-06-15 08:02:00,64.0,56.0,29.96,NNE,19,0.0,3.0,74,0.00,,,0.04,,2013-06-15 12:02:00,
2013-06-15 08:12:00,64.0,56.0,29.96,NNE,19,0.0,3.0,74,0.00,,,0.04,,2013-06-15 12:12:00,
2013-06-15 08:22:00,64.0,56.0,29.96,NNE,19,0.0,3.0,74,0.00,,,0.04,,2013-06-15 12:22:00,
2013-06-15 08:33:00,65.0,55.0,29.98,NW,320,6.0,9.0,69,0.00,,,0.04,,2013-06-15 12:33:00,
2013-06-15 08:43:00,65.0,55.0,29.98,NW,320,6.0,9.0,69,0.00,,,0.04,,2013-06-15 12:43:00,
2013-06-15 08:53:00,65.0,55.0,29.98,NW,320,6.0,9.0,69,0.00,,,0.04,,2013-06-15 12:53:00,
2013-06-15 09:02:00,67.0,53.0,29.99,NW,318,3.0,9.0,61,0.00,,,0.04,,2013-06-15 13:02:00,
2013-06-15 09:11:00,67.0,53.0,29.99,NW,318,3.0,9.0,61,0.00,,,0.04,,2013-06-15 13:11:00,
2013-06-15 09:22:00,68.0,54.0,30.00,NNW,333,0.0,9.0,61,0.00,,,0.04,,2013-06-15 13:22:00,
2013-06-15 09:32:00,69.0,54.0,30.00,NE,48,5.0,7.0,59,0.00,,,0.04,,2013-06-15 13:32:00,
2013-06-15 09:43:00,69.0,54.0,30.00,NW,312,8.0,8.0,58,0.00,,,0.04,,2013-06-15 13:43:00,
2013-06-15 09:53:00,70.0,53.0,30.00,NNW,340,0.0,7.0,55,0.00,,,0.04,,2013-06-15 13:53:00,
2013-06-15 10:02:00,70.0,53.0,30.00,NNW,340,0.0,7.0,55,0.00,,,0.04,,2013-06-15 14:02:00,
2013-06-15 10:12:00,71.0,54.0,30.00,NNW,330,0.0,7.0,54,0.00,,,0.04,,2013-06-15 14:12:00,
2013-06-15 10:23:00,72.0,54.0,30.00,NNE,19,0.0,7.0,53,0.00,,,0.04,,2013-06-15 14:23:00,
2013-06-15 10:34:00,72.0,54.0,30.00,NNE,19,0.0,7.0,53,0.00,,,0.04,,2013-06-15 14:34:00,
2013-06-15 10:43:00,72.0,54.0,30.00,NNE,19,0.0,7.0,53,0.00,,,0.04,,2013-06-15 14:43:00,
2013-06-15 10:53:00,73.0,52.0,30.01,NW,314,4.0,6.0,48,0.00,,,0.04,,2013-06-15 14:53:00,
2013-06-15 11:02:00,74.0,51.0,30.01,NNW,334,6.0,6.0,44,0.00,,,0.04,,2013-06-15 15:02:00,
2013-06-15 11:12:00,74.0,52.0,30.00,WNW,298,7.0,7.0,46,0.00,,,0.04,,2013-06-15 15:12:00,
2013-06-15 11:22:00,74.0,52.0,30.00,WNW,298,7.0,7.0,46,0.00,,,0.04,,2013-06-15 15:22:00,
2013-06-15 11:33:00,74.0,49.0,30.00,NNE,21,0.0,4.0,41,0.00,,,0.04,,2013-06-15 15:33:00,
2013-06-15 11:43:00,74.0,52.0,30.00,WSW,241,7.0,7.0,46,0.00,,,0.04,,2013-06-15 15:43:00,
2013-06-15 11:53:00,74.0,52.0,30.00,WSW,241,7.0,7.0,46,0.00,,,0.04,,2013-06-15 15:53:00,
2013-06-15 12:02:00,75.0,48.0,30.00,NW,326,0.0,4.0,38,0.00,,,0.04,,2013-06-15 16:02:00,
2013-06-15 12:12:00,75.0,48.0,30.00,NW,326,0.0,4.0,38,0.00,,,0.04,,2013-06-15 16:12:00,
2013-06-15 12:22:00,75.0,49.0,30.00,NNE,14,0.0,4.0,40,0.00,,,0.04,,2013-06-15 16:22:00,
2013-06-15 12:33:00,75.0,49.0,30.00,NNE,14,0.0,4.0,40,0.00,,,0.04,,2013-06-15 16:33:00,
2013-06-15 12:43:00,75.0,49.0,30.00,NNE,14,0.0,4.0,40,0.00,,,0.04,,2013-06-15 16:43:00,
2013-06-15 12:53:00,75.0,49.0,30.00,NNE,14,0.0,4.0,40,0.00,,,0.04,,2013-06-15 16:53:00,
2013-06-15 13:02:00,76.0,47.0,30.00,NNW,347,2.0,3.0,36,0.00,,,0.04,,2013-06-15 17:02:00,
2013-06-15 13:12:00,76.0,46.0,30.00,WNW,301,0.0,3.0,35,0.00,,,0.04,,2013-06-15 17:12:00,
2013-06-15 13:22:00,76.0,49.0,30.00,SW,221,6.0,8.0,39,0.00,,,0.04,,2013-06-15 17:22:00,
2013-06-15 13:32:00,76.0,49.0,30.00,SW,221,6.0,8.0,39,0.00,,,0.04,,2013-06-15 17:32:00,
2013-06-15 13:43:00,76.0,49.0,30.00,SW,219,3.0,8.0,39,0.00,,,0.04,,2013-06-15 17:43:00,
2013-06-15 13:52:00,74.0,52.0,29.99,SSW,210,2.0,8.0,46,0.00,,,0.04,,2013-06-15 17:52:00,
2013-06-15 14:01:00,74.0,55.0,29.99,South,188,0.0,8.0,51,0.00,,,0.04,,2013-06-15 18:01:00,
2013-06-15 14:12:00,74.0,57.0,29.99,WSW,237,4.0,8.0,55,0.00,,,0.04,,2013-06-15 18:12:00,
2013-06-15 14:22:00,74.0,57.0,29.99,WSW,237,4.0,8.0,55,0.00,,,0.04,,2013-06-15 18:22:00,
2013-06-15 14:32:00,73.0,56.0,29.99,WSW,248,11.0,12.0,56,0.00,,,0.04,,2013-06-15 18:32:00,
2013-06-15 14:43:00,72.0,55.0,29.98,SSW,207,7.0,12.0,55,0.00,,,0.04,,2013-06-15 18:43:00,
2013-06-15 14:53:00,72.0,55.0,29.98,SSW,207,7.0,12.0,55,0.00,,,0.04,,2013-06-15 18:53:00,
2013-06-15 15:02:00,72.0,55.0,29.98,SSW,207,7.0,12.0,55,0.00,,,0.04,,2013-06-15 19:02:00,
2013-06-15 15:12:00,72.0,55.0,29.98,SSW,207,7.0,12.0,55,0.00,,,0.04,,2013-06-15 19:12:00,
2013-06-15 15:22:00,73.0,54.0,29.97,WSW,237,9.0,12.0,51,0.00,,,0.04,,2013-06-15 19:22:00,
2013-06-15 15:33:00,73.0,54.0,29.97,South,183,3.0,6.0,52,0.00,,,0.04,,2013-06-15 19:33:00,
2013-06-15 15:43:00,73.0,54.0,29.97,South,183,3.0,6.0,52,0.00,,,0.04,,2013-06-15 19:43:00,
2013-06-15 15:53:00,73.0,54.0,29.97,SSW,208,0.0,6.0,52,0.00,,,0.04,,2013-06-15 19:53:00,
2013-06-15 16:02:00,72.0,55.0,29.97,WSW,253,11.0,11.0,55,0.00,,,0.04,,2013-06-15 20:02:00,
2013-06-15 16:12:00,73.0,56.0,29.97,West,270,3.0,6.0,56,0.00,,,0.04,,2013-06-15 20:12:00,
2013-06-15 16:22:00,73.0,56.0,29.97,West,270,3.0,6.0,56,0.00,,,0.04,,2013-06-15 20:22:00,
2013-06-15 16:33:00,73.0,56.0,29.97,West,270,3.0,6.0,56,0.00,,,0.04,,2013-06-15 20:33:00,
2013-06-15 16:43:00,73.0,55.0,29.97,WSW,237,11.0,14.0,53,0.00,,,0.04,,2013-06-15 20:43:00,
2013-06-15 16:53:00,73.0,55.0,29.97,WSW,237,11.0,14.0,53,0.00,,,0.04,,2013-06-15 20:53:00,
2013-06-15 17:02:00,72.0,56.0,29.97,SW,226,11.0,14.0,58,0.00,,,0.04,,2013-06-15 21:02:00,
2013-06-15 17:12:00,72.0,56.0,29.97,SW,226,11.0,14.0,58,0.00,,,0.04,,2013-06-15 21:12:00,
2013-06-15 17:22:00,72.0,55.0,29.96,SSW,200,0.0,14.0,55,0.00,,,0.04,,2013-06-15 21:22:00,
2013-06-15 17:34:00,71.0,54.0,29.96,SW,223,9.0,17.0,55,0.00,,,0.04,,2013-06-15 21:34:00,
2013-06-15 17:42:00,71.0,54.0,29.97,SW,216,10.0,17.0,56,0.00,,,0.04,,2013-06-15 21:42:00,
2013-06-15 17:53:00,71.0,54.0,29.97,SW,216,10.0,17.0,56,0.00,,,0.04,,2013-06-15 21:53:00,
2013-06-15 18:01:00,71.0,53.0,29.96,SW,226,8.0,17.0,53,0.00,,,0.04,,2013-06-15 22:01:00,
2013-06-15 18:11:00,71.0,54.0,29.97,SW,230,0.0,17.0,54,0.00,,,0.04,,2013-06-15 22:11:00,
2013-06-15 18:22:00,71.0,54.0,29.97,SW,230,0.0,17.0,54,0.00,,,0.04,,2013-06-15 22:22:00,
2013-06-15 18:33:00,70.0,53.0,29.97,West,264,9.0,9.0,55,0.00,,,0.04,,2013-06-15 22:33:00,
2013-06-15 18:43:00,70.0,53.0,29.97,West,264,9.0,9.0,55,0.00,,,0.04,,2013-06-15 22:43:00,
2013-06-15 18:53:00,70.0,54.0,29.97,SW,235,4.0,6.0,56,0.00,,,0.04,,2013-06-15 22:53:00,
2013-06-15 19:02:00,70.0,54.0,29.97,SW,235,4.0,6.0,56,0.00,,,0.04,,2013-06-15 23:02:00,
2013-06-15 19:12:00,70.0,54.0,29.97,SW,235,4.0,6.0,56,0.00,,,0.04,,2013-06-15 23:12:00,
2013-06-15 19:22:00,70.0,54.0,29.97,SW,235,4.0,6.0,56,0.00,,,0.04,,2013-06-15 23:22:00,
2013-06-15 19:33:00,70.0,53.0,29.98,WSW,242,5.0,11.0,54,0.00,,,0.04,,2013-06-15 23:33:00,
2013-06-15 19:43:00,69.0,52.0,29.98,West,266,5.0,11.0,54,0.00,,,0.04,,2013-06-15 23:43:00,
2013-06-15 19:53:00,69.0,52.0,29.98,West,266,5.0,11.0,54,0.00,,,0.04,,2013-06-15 23:53:00,
2013-06-15 20:02:00,69.0,52.0,29.98,West,266,5.0,11.0,54,0.00,,,0.04,,2013-06-16 00:02:00,
2013-06-15 20:11:00,68.0,53.0,29.98,SW,233,0.0,11.0,59,0.00,,,0.04,,2013-06-16 00:11:00,
2013-06-15 20:22:00,68.0,54.0,29.98,WSW,237,7.0,11.0,61,0.00,,,0.04,,2013-06-16 00:22:00,
2013-06-15 20:34:00,67.0,54.0,29.98,SW,230,0.0,4.0,62,0.00,,,0.04,,2013-06-16 00:34:00,
2013-06-15 20:43:00,66.0,54.0,29.99,WSW,238,0.0,4.0,65,0.00,,,0.04,,2013-06-16 00:43:00,
2013-06-15 20:52:00,66.0,54.0,29.99,WSW,238,0.0,4.0,65,0.00,,,0.04,,2013-06-16 00:52:00,
2013-06-15 21:02:00,65.0,55.0,29.99,SW,223,2.0,4.0,70,0.00,,,0.04,,2013-06-16 01:02:00,
2013-06-15 21:12:00,65.0,55.0,29.99,SW,223,2.0,4.0,70,0.00,,,0.04,,2013-06-16 01:12:00,
2013-06-15 21:22:00,64.0,57.0,30.00,SW,236,0.0,6.0,77,0.01,,,0.05,,2013-06-16 01:22:00,
2013-06-15 21:33:00,64.0,57.0,30.00,SW,236,0.0,6.0,77,0.01,,,0.05,,2013-06-16 01:33:00,
2013-06-15 21:42:00,64.0,58.0,30.01,SW,225,0.0,6.0,80,0.01,,,0.05,,2013-06-16 01:42:00,
2013-06-15 21:53:00,64.0,58.0,30.01,SW,225,0.0,6.0,80,0.01,,,0.05,,2013-06-16 01:53:00,
2013-06-15 22:02:00,64.0,58.0,30.01,SW,225,0.0,6.0,80,0.01,,,0.05,,2013-06-16 02:02:00,
2013-06-15 22:12:00,64.0,58.0,30.01,SW,225,0.0,6.0,80,0.01,,,0.05,,2013-06-16 02:12:00,
2013-06-15 22:22:00,63.0,56.0,30.02,WSW,243,0.0,6.0,79,0.01,,,0.05,,2013-06-16 02:22:00,
2013-06-15 22:33:00,63.0,56.0,30.02,WSW,243,0.0,6.0,79,0.01,,,0.05,,2013-06-16 02:33:00,
2013-06-15 22:43:00,63.0,57.0,30.02,SW,235,0.0,6.0,82,0.00,,,0.05,,2013-06-16 02:43:00,
2013-06-15 22:53:00,63.0,58.0,30.02,SW,235,0.0,6.0,83,0.00,,,0.05,,2013-06-16 02:53:00,
2013-06-15 23:02:00,63.0,58.0,30.02,SW,235,0.0,6.0,83,0.00,,,0.05,,2013-06-16 03:02:00,
2013-06-15 23:12:00,63.0,58.0,30.02,SW,235,0.0,6.0,83,0.00,,,0.05,,2013-06-16 03:12:00,
2013-06-15 23:22:00,62.0,57.0,30.02,WSW,248,0.0,6.0,85,0.00,,,0.05,,2013-06-16 03:22:00,
2013-06-15 23:34:00,62.0,57.0,30.02,WSW,248,0.0,6.0,85,0.00,,,0.05,,2013-06-16 03:34:00,
2013-06-15 23:43:00,62.0,57.0,30.02,WSW,248,0.0,6.0,85,0.00,,,0.05,,2013-06-16 03:43:00,
2013-06-15 23:53:00,62.0,57.0,30.02,WSW,248,0.0,6.0,85,0.00,,,0.05,,2013-06-16 03:53:00,